Time,TemperatureF,DewpointF,PressureIn,WindDirection,WindDirectionDegrees,WindSpeedMPH,WindSpeedGustMPH,Humidity,HourlyPrecipIn,Conditions,Clouds,dailyrainin,SoftwareType,DateUTC
2013-01-23 00:00:00,3.4,-3.7,30.24,SSW,202,0.0,0.0,72,0.00,,,0.00,WUHU21623XXSP,2013-01-23 05:00:00,
2013-01-23 00:02:00,3.4,-3.7,30.24,SSW,202,0.0,0.0,72,0.00,,,0.00,WUHU21623XXSP,2013-01-23 05:02:00,
2013-01-23 00:03:00,3.4,-3.7,30.24,SSW,202,0.0,0.0,72,0.00,,,0.00,WUHU21623XXSP,2013-01-23 05:03:00,
2013-01-23 00:08:00,3.4,-3.7,30.24,SSW,202,0.0,0.0,72,0.00,,,0.00,WUHU21623XXSP,2013-01-23 05:08:00,
2013-01-23 00:13:00,3.4,-3.7,30.24,SSW,202,0.0,0.0,72,0.00,,,0.00,WUHU21623XXSP,2013-01-23 05:13:00,
2013-01-23 00:18:00,3.4,-3.9,30.25,SSW,202,0.0,0.0,71,0.00,,,0.00,WUHU21623XXSP,2013-01-23 05:18:00,
2013-01-23 00:23:00,3.4,-3.9,30.25,SSW,202,0.0,0.0,71,0.00,,,0.00,WUHU21623XXSP,2013-01-23 05:23:00,
2013-01-23 00:28:00,3.4,-3.9,30.25,SSW,202,0.0,0.0,71,0.00,,,0.00,WUHU21623XXSP,2013-01-23 05:28:00,
2013-01-23 00:33:00,3.4,-3.9,30.24,SSW,202,0.0,0.0,71,0.00,,,0.00,WUHU21623XXSP,2013-01-23 05:33:00,
2013-01-23 00:38:00,3.4,-3.9,30.24,SSW,202,0.0,0.0,71,0.00,,,0.00,WUHU21623XXSP,2013-01-23 05:38:00,
2013-01-23 00:43:00,3.4,-3.9,30.24,SSW,202,0.0,0.0,71,0.00,,,0.00,WUHU21623XXSP,2013-01-23 05:43:00,
2013-01-23 00:48:00,3.4,-3.9,30.24,SW,225,0.0,0.0,71,0.00,,,0.00,WUHU21623XXSP,2013-01-23 05:48:00,
2013-01-23 00:53:00,3.6,-3.9,30.24,SW,225,0.0,0.0,71,0.00,,,0.00,WUHU21623XXSP,2013-01-23 05:53:00,
2013-01-23 00:58:00,3.6,-3.8,30.24,SW,225,0.0,0.0,71,0.00,,,0.00,WUHU21623XXSP,2013-01-23 05:58:00,
2013-01-23 01:03:00,3.6,-3.8,30.24,SW,225,0.0,0.0,71,0.00,,,0.00,WUHU21623XXSP,2013-01-23 06:03:00,
2013-01-23 01:08:00,3.6,-3.8,30.24,SW,225,0.0,0.0,71,0.00,,,0.00,WUHU21623XXSP,2013-01-23 06:08:00,
2013-01-23 01:13:00,3.7,-3.6,30.24,SW,225,0.0,0.0,71,0.00,,,0.00,WUHU21623XXSP,2013-01-23 06:13:00,
2013-01-23 01:18:00,3.7,-3.6,30.24,SW,225,0.0,0.0,71,0.00,,,0.00,WUHU21623XXSP,2013-01-23 06:18:00,
2013-01-23 01:23:00,3.7,-3.6,30.24,SW,225,0.0,0.0,71,0.00,,,0.00,WUHU21623XXSP,2013-01-23 06:23:00,
2013-01-23 01:28:00,3.9,-3.6,30.23,SW,225,0.0,0.0,71,0.00,,,0.00,WUHU21623XXSP,2013-01-23 06:28:00,
2013-01-23 01:33:00,3.9,-3.4,30.23,SW,225,0.0,0.0,71,0.00,,,0.00,WUHU21623XXSP,2013-01-23 06:33:00,
2013-01-23 01:38:00,3.9,-3.4,30.23,SW,225,0.0,0.0,71,0.00,,,0.00,WUHU21623XXSP,2013-01-23 06:38:00,
2013-01-23 01:43:00,3.9,-3.4,30.23,SW,225,0.0,0.0,71,0.00,,,0.00,WUHU21623XXSP,2013-01-23 06:43:00,
2013-01-23 01:48:00,3.9,-3.4,30.23,SW,225,0.0,0.0,71,0.00,,,0.00,WUHU21623XXSP,2013-01-23 06:48:00,
2013-01-23 01:53:00,3.9,-3.4,30.23,SW,225,0.0,0.0,71,0.00,,,0.00,WUHU21623XXSP,2013-01-23 06:53:00,
2013-01-23 01:58:00,3.9,-3.4,30.24,SSW,202,0.0,2.5,71,0.00,,,0.00,WUHU21623XXSP,2013-01-23 06:58:00,
2013-01-23 02:03:00,4.1,-3.3,30.23,SW,225,0.0,2.5,71,0.00,,,0.00,WUHU21623XXSP,2013-01-23 07:03:00,
2013-01-23 02:08:00,4.1,-3.3,30.23,SW,225,0.0,0.0,71,0.00,,,0.00,WUHU21623XXSP,2013-01-23 07:08:00,
2013-01-23 02:13:00,4.1,-3.3,30.24,SW,225,0.0,0.0,71,0.00,,,0.00,WUHU21623XXSP,2013-01-23 07:13:00,
2013-01-23 02:18:00,4.1,-3.6,30.24,SW,225,0.0,0.0,70,0.00,,,0.00,WUHU21623XXSP,2013-01-23 07:18:00,
2013-01-23 02:23:00,4.1,-3.6,30.24,SW,225,0.0,1.6,70,0.00,,,0.00,WUHU21623XXSP,2013-01-23 07:23:00,
2013-01-23 02:28:00,3.9,-3.7,30.24,SW,225,0.0,1.6,70,0.00,,,0.00,WUHU21623XXSP,2013-01-23 07:28:00,
2013-01-23 02:33:00,3.9,-3.7,30.24,SW,225,0.0,0.0,70,0.00,,,0.00,WUHU21623XXSP,2013-01-23 07:33:00,
2013-01-23 02:38:00,3.9,-3.7,30.24,SW,225,0.0,0.0,70,0.00,,,0.00,WUHU21623XXSP,2013-01-23 07:38:00,
2013-01-23 02:43:00,3.7,-3.9,30.24,SW,225,0.0,0.0,70,0.00,,,0.00,WUHU21623XXSP,2013-01-23 07:43:00,
2013-01-23 02:48:00,3.4,-4.2,30.24,SW,225,0.0,0.0,70,0.00,,,0.00,WUHU21623XXSP,2013-01-23 07:48:00,
2013-01-23 02:53:00,3.4,-4.2,30.24,SW,225,0.0,0.0,70,0.00,,,0.00,WUHU21623XXSP,2013-01-23 07:53:00,
2013-01-23 02:58:00,3.0,-4.5,30.24,SW,225,0.0,0.0,70,0.00,,,0.00,WUHU21623XXSP,2013-01-23 07:58:00,
2013-01-23 03:03:00,2.8,-4.5,30.25,SW,225,0.0,0.0,70,0.00,,,0.00,WUHU21623XXSP,2013-01-23 08:03:00,
2013-01-23 03:08:00,2.8,-4.7,30.25,SW,225,0.0,0.0,70,0.00,,,0.00,WUHU21623XXSP,2013-01-23 08:08:00,
2013-01-23 03:13:00,2.8,-4.7,30.24,SW,225,0.0,0.0,70,0.00,,,0.00,WUHU21623XXSP,2013-01-23 08:13:00,
2013-01-23 03:18:00,2.5,-5.1,30.24,SW,225,0.0,0.0,70,0.00,,,0.00,WUHU21623XXSP,2013-01-23 08:18:00,
2013-01-23 03:23:00,2.5,-5.1,30.24,SW,225,0.0,0.0,70,0.00,,,0.00,WUHU21623XXSP,2013-01-23 08:23:00,
2013-01-23 03:28:00,2.3,-5.3,30.24,SW,225,0.0,0.0,70,0.00,,,0.00,WUHU21623XXSP,2013-01-23 08:28:00,
2013-01-23 03:33:00,2.1,-5.4,30.24,SW,225,0.0,0.0,70,0.00,,,0.00,WUHU21623XXSP,2013-01-23 08:33:00,
2013-01-23 03:38:00,2.1,-5.4,30.24,SW,225,0.0,0.0,70,0.00,,,0.00,WUHU21623XXSP,2013-01-23 08:38:00,
2013-01-23 03:43:00,1.9,-5.6,30.24,SW,225,0.0,0.0,70,0.00,,,0.00,WUHU21623XXSP,2013-01-23 08:43:00,
2013-01-23 03:48:00,1.9,-5.6,30.23,SW,225,0.0,0.0,70,0.00,,,0.00,WUHU21623XXSP,2013-01-23 08:48:00,
2013-01-23 03:53:00,1.9,-5.6,30.24,SW,225,0.0,0.0,70,0.00,,,0.00,WUHU21623XXSP,2013-01-23 08:53:00,
2013-01-23 03:58:00,1.8,-5.8,30.23,SSW,202,0.0,0.0,70,0.00,,,0.00,WUHU21623XXSP,2013-01-23 08:58:00,
2013-01-23 04:03:00,1.8,-5.8,30.23,SW,225,0.0,0.0,70,0.00,,,0.00,WUHU21623XXSP,2013-01-23 09:03:00,
2013-01-23 04:08:00,1.8,-5.8,30.23,SW,225,0.0,0.0,70,0.00,,,0.00,WUHU21623XXSP,2013-01-23 09:08:00,
2013-01-23 04:13:00,1.8,-5.8,30.24,SSW,202,0.0,0.0,70,0.00,,,0.00,WUHU21623XXSP,2013-01-23 09:13:00,
2013-01-23 04:18:00,1.8,-5.8,30.24,SSW,202,0.0,0.0,70,0.00,,,0.00,WUHU21623XXSP,2013-01-23 09:18:00,
2013-01-23 04:23:00,1.8,-5.8,30.23,SW,225,0.0,0.0,70,0.00,,,0.00,WUHU21623XXSP,2013-01-23 09:23:00,
2013-01-23 04:28:00,1.8,-5.8,30.23,SW,225,0.0,0.0,70,0.00,,,0.00,WUHU21623XXSP,2013-01-23 09:28:00,
2013-01-23 04:33:00,1.8,-5.8,30.23,SW,225,0.0,0.0,70,0.00,,,0.00,WUHU21623XXSP,2013-01-23 09:33:00,
2013-01-23 04:38:00,1.6,-6.0,30.24,SSW,202,0.0,0.0,70,0.00,,,0.00,WUHU21623XXSP,2013-01-23 09:38:00,
2013-01-23 04:43:00,1.6,-6.0,30.23,SW,225,0.0,0.0,70,0.00,,,0.00,WUHU21623XXSP,2013-01-23 09:43:00,
2013-01-23 04:48:00,1.6,-6.0,30.23,SW,225,0.0,0.0,70,0.00,,,0.00,WUHU21623XXSP,2013-01-23 09:48:00,
2013-01-23 04:53:00,1.8,-6.0,30.23,SW,225,0.0,0.0,70,0.00,,,0.00,WUHU21623XXSP,2013-01-23 09:53:00,
2013-01-23 04:58:00,1.6,-6.0,30.23,SW,225,0.0,0.0,70,0.00,,,0.00,WUHU21623XXSP,2013-01-23 09:58:00,
2013-01-23 05:03:00,1.6,-6.0,30.23,SSW,202,0.0,0.0,70,0.00,,,0.00,WUHU21623XXSP,2013-01-23 10:03:00,
2013-01-23 05:08:00,1.6,-6.0,30.23,SSW,202,0.0,0.0,70,0.00,,,0.00,WUHU21623XXSP,2013-01-23 10:08:00,
2013-01-23 05:13:00,1.6,-6.0,30.23,SSW,202,0.0,0.0,70,0.00,,,0.00,WUHU21623XXSP,2013-01-23 10:13:00,
2013-01-23 05:18:00,1.6,-5.7,30.23,SSW,202,0.0,0.0,71,0.00,,,0.00,WUHU21623XXSP,2013-01-23 10:18:00,
2013-01-23 05:23:00,1.4,-5.7,30.22,SSW,202,0.0,0.0,71,0.00,,,0.00,WUHU21623XXSP,2013-01-23 10:23:00,
2013-01-23 05:28:00,1.4,-5.9,30.22,SSW,202,0.0,0.0,71,0.00,,,0.00,WUHU21623XXSP,2013-01-23 10:28:00,
2013-01-23 05:33:00,1.2,-6.1,30.22,SSW,202,0.0,0.0,71,0.00,,,0.00,WUHU21623XXSP,2013-01-23 10:33:00,
2013-01-23 05:38:00,1.2,-6.1,30.22,SSW,202,0.0,0.0,71,0.00,,,0.00,WUHU21623XXSP,2013-01-23 10:38:00,
2013-01-23 05:43:00,1.2,-6.1,30.22,SSW,202,0.0,0.0,71,0.00,,,0.00,WUHU21623XXSP,2013-01-23 10:43:00,
2013-01-23 05:48:00,1.2,-6.1,30.22,SSW,202,0.0,0.0,71,0.00,,,0.00,WUHU21623XXSP,2013-01-23 10:48:00,
2013-01-23 05:53:00,1.0,-6.3,30.22,SSW,202,0.0,0.0,71,0.00,,,0.00,WUHU21623XXSP,2013-01-23 10:53:00,
2013-01-23 05:58:00,1.0,-6.3,30.22,SSW,202,0.0,0.0,71,0.00,,,0.00,WUHU21623XXSP,2013-01-23 10:58:00,
2013-01-23 06:03:00,1.0,-6.3,30.22,SSW,202,0.0,0.0,71,0.00,,,0.00,WUHU21623XXSP,2013-01-23 11:03:00,
2013-01-23 06:09:00,0.9,-6.4,30.22,SSW,202,0.0,0.0,71,0.00,,,0.00,WUHU21623XXSP,2013-01-23 11:09:00,
2013-01-23 06:14:00,0.7,-6.3,30.22,SSW,202,0.0,0.0,72,0.00,,,0.00,WUHU21623XXSP,2013-01-23 11:14:00,
2013-01-23 06:19:00,0.7,-6.3,30.21,SSW,202,0.0,0.0,72,0.00,,,0.00,WUHU21623XXSP,2013-01-23 11:19:00,
2013-01-23 06:24:00,0.7,-6.3,30.21,SSW,202,0.0,0.0,72,0.00,,,0.00,WUHU21623XXSP,2013-01-23 11:24:00,
2013-01-23 06:29:00,0.5,-6.5,30.22,SSW,202,0.0,0.0,72,0.00,,,0.00,WUHU21623XXSP,2013-01-23 11:29:00,
2013-01-23 06:34:00,0.5,-6.5,30.21,SSW,202,0.0,0.0,72,0.00,,,0.00,WUHU21623XXSP,2013-01-23 11:34:00,
2013-01-23 06:39:00,0.5,-6.5,30.21,SSW,202,0.0,0.0,72,0.00,,,0.00,WUHU21623XXSP,2013-01-23 11:39:00,
2013-01-23 06:44:00,0.3,-6.4,30.21,SSW,202,0.0,0.0,73,0.00,,,0.00,WUHU21623XXSP,2013-01-23 11:44:00,
2013-01-23 06:49:00,0.3,-6.4,30.21,SSW,202,0.0,0.0,73,0.00,,,0.00,WUHU21623XXSP,2013-01-23 11:49:00,
2013-01-23 06:54:00,0.3,-6.4,30.21,SSW,202,0.0,0.0,73,0.00,,,0.00,WUHU21623XXSP,2013-01-23 11:54:00,
2013-01-23 06:59:00,0.3,-6.4,30.21,SSW,202,0.0,0.0,73,0.00,,,0.00,WUHU21623XXSP,2013-01-23 11:59:00,
2013-01-23 07:04:00,0.3,-6.1,30.22,South,180,0.0,0.0,74,0.00,,,0.00,WUHU21623XXSP,2013-01-23 12:04:00,
2013-01-23 07:09:00,0.3,-6.1,30.21,South,180,0.0,0.0,74,0.00,,,0.00,WUHU21623XXSP,2013-01-23 12:09:00,
2013-01-23 07:14:00,0.3,-6.1,30.21,South,180,0.0,0.0,74,0.00,,,0.00,WUHU21623XXSP,2013-01-23 12:14:00,
2013-01-23 07:19:00,0.3,-6.1,30.22,South,180,0.0,0.0,74,0.00,,,0.00,WUHU21623XXSP,2013-01-23 12:19:00,
2013-01-23 07:24:00,0.3,-6.1,30.21,South,180,0.0,0.0,74,0.00,,,0.00,WUHU21623XXSP,2013-01-23 12:24:00,
2013-01-23 07:29:00,0.3,-5.8,30.22,SSE,157,0.0,0.0,75,0.00,,,0.00,WUHU21623XXSP,2013-01-23 12:29:00,
2013-01-23 07:34:00,0.3,-5.8,30.21,SSE,157,0.0,0.0,75,0.00,,,0.00,WUHU21623XXSP,2013-01-23 12:34:00,
2013-01-23 07:39:00,0.3,-5.8,30.21,South,180,0.0,0.0,75,0.00,,,0.00,WUHU21623XXSP,2013-01-23 12:39:00,
2013-01-23 07:44:00,0.3,-5.8,30.21,South,180,0.0,0.0,75,0.00,,,0.00,WUHU21623XXSP,2013-01-23 12:44:00,
2013-01-23 07:49:00,0.3,-5.8,30.21,South,180,0.0,0.0,75,0.00,,,0.00,WUHU21623XXSP,2013-01-23 12:49:00,
2013-01-23 07:54:00,0.3,-5.6,30.21,South,180,0.0,0.0,76,0.00,,,0.00,WUHU21623XXSP,2013-01-23 12:54:00,
2013-01-23 07:59:00,0.5,-5.4,30.21,SSE,157,0.0,0.0,76,0.00,,,0.00,WUHU21623XXSP,2013-01-23 12:59:00,
2013-01-23 08:04:00,0.7,-5.2,30.21,SSE,157,0.0,0.0,76,0.00,,,0.00,WUHU21623XXSP,2013-01-23 13:04:00,
2013-01-23 08:09:00,0.7,-5.2,30.20,SSE,157,0.0,0.0,76,0.00,,,0.00,WUHU21623XXSP,2013-01-23 13:09:00,
2013-01-23 08:14:00,0.9,-5.1,30.20,SSE,157,0.0,0.0,76,0.00,,,0.00,WUHU21623XXSP,2013-01-23 13:14:00,
2013-01-23 08:19:00,1.0,-4.9,30.20,SSE,157,0.0,0.0,76,0.00,,,0.00,WUHU21623XXSP,2013-01-23 13:19:00,
2013-01-23 08:24:00,1.2,-4.5,30.20,SSE,157,0.0,0.0,77,0.00,,,0.00,WUHU21623XXSP,2013-01-23 13:24:00,
2013-01-23 08:29:00,1.4,-4.3,30.20,SSE,157,0.0,0.0,77,0.00,,,0.00,WUHU21623XXSP,2013-01-23 13:29:00,
2013-01-23 08:34:00,1.8,-3.9,30.20,SSE,157,0.0,0.0,77,0.00,,,0.00,WUHU21623XXSP,2013-01-23 13:34:00,
2013-01-23 08:39:00,1.8,-3.9,30.21,SSW,202,0.0,0.0,77,0.00,,,0.00,WUHU21623XXSP,2013-01-23 13:39:00,
2013-01-23 08:44:00,1.9,-3.7,30.21,SSE,157,0.0,0.0,77,0.00,,,0.00,WUHU21623XXSP,2013-01-23 13:44:00,
2013-01-23 08:49:00,2.1,-3.6,30.21,SW,225,0.0,2.5,77,0.00,,,0.00,WUHU21623XXSP,2013-01-23 13:49:00,
2013-01-23 08:54:00,2.3,-3.4,30.21,SSW,202,0.0,2.5,77,0.00,,,0.00,WUHU21623XXSP,2013-01-23 13:54:00,
2013-01-23 08:59:00,2.8,-3.2,30.21,SSE,157,0.0,0.0,77,0.00,,,0.00,WUHU21623XXSP,2013-01-23 13:59:00,
2013-01-23 09:04:00,2.8,-2.8,30.21,SSE,157,0.0,0.0,77,0.00,,,0.00,WUHU21623XXSP,2013-01-23 14:04:00,
2013-01-23 09:09:00,3.0,-2.8,30.20,SSE,157,0.0,0.0,77,0.00,,,0.00,WUHU21623XXSP,2013-01-23 14:09:00,
2013-01-23 09:14:00,3.4,-2.3,30.21,SSE,157,0.0,0.0,77,0.00,,,0.00,WUHU21623XXSP,2013-01-23 14:14:00,
2013-01-23 09:18:00,3.7,-1.9,30.20,SSE,157,0.0,0.0,77,0.00,,,0.00,WUHU21623XXSP,2013-01-23 14:18:00,
2013-01-23 09:24:00,3.9,-1.8,30.21,SSW,202,0.0,0.0,77,0.00,,,0.00,WUHU21623XXSP,2013-01-23 14:24:00,
2013-01-23 09:28:00,4.6,-1.1,30.21,SW,225,3.6,3.6,77,0.00,,,0.00,WUHU21623XXSP,2013-01-23 14:28:00,
2013-01-23 09:33:00,4.8,-1.1,30.21,SSW,202,0.0,3.6,77,0.00,,,0.00,WUHU21623XXSP,2013-01-23 14:33:00,
2013-01-23 09:38:00,5.2,-0.5,30.20,SW,225,0.0,0.0,77,0.00,,,0.00,WUHU21623XXSP,2013-01-23 14:38:00,
2013-01-23 09:43:00,5.7,-0.5,30.20,SSW,202,0.0,0.0,76,0.00,,,0.00,WUHU21623XXSP,2013-01-23 14:43:00,
2013-01-23 09:48:00,6.1,0.1,30.20,SSW,202,0.0,0.0,76,0.00,,,0.00,WUHU21623XXSP,2013-01-23 14:48:00,
2013-01-23 09:53:00,6.6,0.3,30.21,South,180,0.0,0.0,75,0.00,,,0.00,WUHU21623XXSP,2013-01-23 14:53:00,
2013-01-23 09:58:00,7.2,0.9,30.20,South,180,0.0,3.6,75,0.00,,,0.00,WUHU21623XXSP,2013-01-23 14:58:00,
2013-01-23 10:03:00,7.7,1.1,30.20,SSE,157,3.6,3.6,74,0.00,,,0.00,WUHU21623XXSP,2013-01-23 15:03:00,
2013-01-23 10:08:00,8.2,1.4,30.20,SSW,202,0.0,3.6,73,0.00,,,0.00,WUHU21623XXSP,2013-01-23 15:08:00,
2013-01-23 10:13:00,9.1,2.2,30.20,SSE,157,0.0,0.0,73,0.00,,,0.00,WUHU21623XXSP,2013-01-23 15:13:00,
2013-01-23 10:18:00,9.7,2.4,30.20,SSE,157,0.0,0.0,72,0.00,,,0.00,WUHU21623XXSP,2013-01-23 15:18:00,
2013-01-23 10:23:00,10.0,2.4,30.20,SW,225,1.3,1.3,71,0.00,,,0.00,WUHU21623XXSP,2013-01-23 15:23:00,
2013-01-23 10:28:00,10.6,2.7,30.20,SSE,157,5.1,5.1,70,0.00,,,0.00,WUHU21623XXSP,2013-01-23 15:28:00,
2013-01-23 10:33:00,10.8,2.5,30.19,SSE,157,0.0,5.1,69,0.00,,,0.00,WUHU21623XXSP,2013-01-23 15:33:00,
2013-01-23 10:38:00,11.1,2.5,30.19,SSE,157,0.0,0.0,68,0.00,,,0.00,WUHU21623XXSP,2013-01-23 15:38:00,
2013-01-23 10:43:00,11.1,2.5,30.19,SSE,157,0.0,0.0,68,0.00,,,0.00,WUHU21623XXSP,2013-01-23 15:43:00,
2013-01-23 10:48:00,11.1,2.2,30.20,South,180,4.0,4.0,67,0.00,,,0.00,WUHU21623XXSP,2013-01-23 15:48:00,
2013-01-23 10:53:00,11.1,2.2,30.20,South,180,5.6,5.6,67,0.00,,,0.00,WUHU21623XXSP,2013-01-23 15:53:00,
2013-01-23 10:58:00,10.9,2.0,30.19,SSE,157,0.0,5.6,67,0.00,,,0.00,WUHU21623XXSP,2013-01-23 15:58:00,
2013-01-23 11:03:00,10.9,2.0,30.19,SSE,157,0.0,4.7,67,0.00,,,0.00,WUHU21623XXSP,2013-01-23 16:03:00,
2013-01-23 11:08:00,11.1,2.2,30.19,SSE,157,0.0,2.0,67,0.00,,,0.00,WUHU21623XXSP,2013-01-23 16:08:00,
2013-01-23 11:13:00,11.1,2.2,30.19,SW,225,0.0,2.7,67,0.00,,,0.00,WUHU21623XXSP,2013-01-23 16:13:00,
2013-01-23 11:18:00,11.1,2.2,30.19,SW,225,0.0,2.7,67,0.00,,,0.00,WUHU21623XXSP,2013-01-23 16:18:00,
2013-01-23 11:23:00,11.1,2.2,30.19,South,180,1.6,1.6,67,0.00,,,0.00,WUHU21623XXSP,2013-01-23 16:23:00,
2013-01-23 11:28:00,11.5,2.6,30.18,SSE,157,0.0,7.6,67,0.00,,,0.00,WUHU21623XXSP,2013-01-23 16:28:00,
2013-01-23 11:33:00,11.8,2.9,30.18,SSE,157,0.0,7.6,67,0.00,,,0.00,WUHU21623XXSP,2013-01-23 16:33:00,
2013-01-23 11:38:00,12.0,3.2,30.18,SSE,157,0.0,0.0,68,0.00,,,0.00,WUHU21623XXSP,2013-01-23 16:38:00,
2013-01-23 11:43:00,12.2,3.6,30.18,South,180,0.7,1.8,68,0.00,,,0.00,WUHU21623XXSP,2013-01-23 16:43:00,
2013-01-23 11:48:00,12.4,3.8,30.17,SSE,157,0.0,1.8,68,0.00,,,0.00,WUHU21623XXSP,2013-01-23 16:48:00,
2013-01-23 11:53:00,12.7,4.5,30.17,South,180,0.0,0.0,69,0.00,,,0.00,WUHU21623XXSP,2013-01-23 16:53:00,
2013-01-23 11:58:00,12.9,4.7,30.17,South,180,1.6,7.2,69,0.00,,,0.00,WUHU21623XXSP,2013-01-23 16:58:00,
2013-01-23 12:03:00,13.3,5.0,30.16,SSE,157,0.0,7.2,69,0.00,,,0.00,WUHU21623XXSP,2013-01-23 17:03:00,
2013-01-23 12:08:00,13.3,5.0,30.16,South,180,7.8,7.8,69,0.00,,,0.00,WUHU21623XXSP,2013-01-23 17:08:00,
2013-01-23 12:13:00,13.5,5.0,30.16,South,180,0.0,7.8,69,0.00,,,0.00,WUHU21623XXSP,2013-01-23 17:13:00,
2013-01-23 12:18:00,13.6,5.4,30.16,SW,225,0.0,0.0,69,0.00,,,0.00,WUHU21623XXSP,2013-01-23 17:18:00,
2013-01-23 12:23:00,13.6,5.4,30.16,SSW,202,2.7,2.7,69,0.00,,,0.00,WUHU21623XXSP,2013-01-23 17:23:00,
2013-01-23 12:28:00,13.8,5.6,30.14,SW,225,0.0,2.7,69,0.00,,,0.00,WUHU21623XXSP,2013-01-23 17:28:00,
2013-01-23 12:33:00,14.4,6.4,30.14,SSW,202,0.0,1.1,70,0.00,,,0.00,WUHU21623XXSP,2013-01-23 17:33:00,
2013-01-23 12:38:00,14.5,6.6,30.14,South,180,4.9,4.9,70,0.00,,,0.00,WUHU21623XXSP,2013-01-23 17:38:00,
2013-01-23 12:43:00,14.7,6.4,30.14,SSW,202,0.0,5.6,69,0.00,,,0.00,WUHU21623XXSP,2013-01-23 17:43:00,
2013-01-23 12:48:00,14.9,6.5,30.13,SSW,202,2.5,5.6,69,0.00,,,0.00,WUHU21623XXSP,2013-01-23 17:48:00,
2013-01-23 12:53:00,15.1,6.7,30.13,SSW,202,0.0,2.5,69,0.00,,,0.00,WUHU21623XXSP,2013-01-23 17:53:00,
2013-01-23 12:58:00,15.3,6.9,30.12,SW,225,0.0,2.2,69,0.00,,,0.00,WUHU21623XXSP,2013-01-23 17:58:00,
2013-01-23 13:03:00,15.3,6.9,30.12,SSW,202,0.0,3.8,69,0.00,,,0.00,WUHU21623XXSP,2013-01-23 18:03:00,
2013-01-23 13:08:00,15.4,7.0,30.11,South,180,3.4,3.8,69,0.00,,,0.00,WUHU21623XXSP,2013-01-23 18:08:00,
2013-01-23 13:13:00,15.6,7.2,30.11,SW,225,0.0,4.0,69,0.00,,,0.00,WUHU21623XXSP,2013-01-23 18:13:00,
2013-01-23 13:18:00,15.6,7.2,30.11,SW,225,0.0,4.0,69,0.00,,,0.00,WUHU21623XXSP,2013-01-23 18:18:00,
2013-01-23 13:24:00,15.8,7.4,30.11,SW,225,0.0,1.1,69,0.00,,,0.00,WUHU21623XXSP,2013-01-23 18:24:00,
2013-01-23 13:29:00,16.0,7.9,30.11,SSW,202,2.5,2.5,70,0.00,,,0.00,WUHU21623XXSP,2013-01-23 18:29:00,
2013-01-23 13:34:00,16.2,8.1,30.10,SW,225,1.1,2.5,70,0.00,,,0.00,WUHU21623XXSP,2013-01-23 18:34:00,
2013-01-23 13:39:00,16.2,8.1,30.10,SSW,202,0.0,1.1,70,0.00,,,0.00,WUHU21623XXSP,2013-01-23 18:39:00,
2013-01-23 13:44:00,16.3,8.2,30.10,SSW,202,6.9,6.9,70,0.00,,,0.00,WUHU21623XXSP,2013-01-23 18:44:00,
2013-01-23 13:49:00,16.3,8.2,30.10,SSW,202,0.0,6.9,70,0.00,,,0.00,WUHU21623XXSP,2013-01-23 18:49:00,
2013-01-23 13:54:00,16.5,8.4,30.10,SSW,202,2.7,2.7,70,0.00,,,0.00,WUHU21623XXSP,2013-01-23 18:54:00,
2013-01-23 13:59:00,16.7,8.6,30.09,SW,225,0.0,4.5,70,0.00,,,0.00,WUHU21623XXSP,2013-01-23 18:59:00,
2013-01-23 14:04:00,16.5,8.4,30.09,South,180,1.6,4.5,70,0.00,,,0.00,WUHU21623XXSP,2013-01-23 19:04:00,
2013-01-23 14:09:00,16.5,8.4,30.09,SSW,202,0.0,1.6,71,0.00,,,0.00,WUHU21623XXSP,2013-01-23 19:09:00,
2013-01-23 14:14:00,16.5,8.7,30.09,SW,225,0.7,0.7,71,0.00,,,0.00,WUHU21623XXSP,2013-01-23 19:14:00,
2013-01-23 14:19:00,16.5,8.7,30.09,SW,225,1.6,6.5,71,0.00,,,0.00,WUHU21623XXSP,2013-01-23 19:19:00,
2013-01-23 14:24:00,16.5,8.7,30.09,SSW,202,0.0,6.5,71,0.00,,,0.00,WUHU21623XXSP,2013-01-23 19:24:00,
2013-01-23 14:29:00,16.5,8.7,30.08,SW,225,0.0,2.5,71,0.00,,,0.00,WUHU21623XXSP,2013-01-23 19:29:00,
2013-01-23 14:34:00,16.7,8.9,30.08,SSW,202,5.4,5.4,71,0.00,,,0.00,WUHU21623XXSP,2013-01-23 19:34:00,
2013-01-23 14:39:00,16.7,8.9,30.08,SSW,202,2.0,5.4,71,0.00,,,0.00,WUHU21623XXSP,2013-01-23 19:39:00,
2013-01-23 14:44:00,16.9,9.1,30.08,SSW,202,5.1,5.1,71,0.00,,,0.00,WUHU21623XXSP,2013-01-23 19:44:00,
2013-01-23 14:49:00,16.9,9.1,30.08,SSW,202,3.6,5.1,71,0.00,,,0.00,WUHU21623XXSP,2013-01-23 19:49:00,
2013-01-23 14:54:00,17.2,9.1,30.08,SSW,202,2.9,3.6,71,0.00,,,0.00,WUHU21623XXSP,2013-01-23 19:54:00,
2013-01-23 14:59:00,17.4,9.3,30.07,SW,225,0.0,2.9,70,0.00,,,0.00,WUHU21623XXSP,2013-01-23 19:59:00,
2013-01-23 15:04:00,17.8,9.7,30.07,South,180,0.0,1.1,70,0.00,,,0.00,WUHU21623XXSP,2013-01-23 20:04:00,
2013-01-23 15:09:00,18.1,10.0,30.07,South,180,0.0,0.0,70,0.00,,,0.00,WUHU21623XXSP,2013-01-23 20:09:00,
2013-01-23 15:14:00,18.5,10.0,30.07,SW,225,0.0,0.0,69,0.00,,,0.00,WUHU21623XXSP,2013-01-23 20:14:00,
2013-01-23 15:19:00,18.7,10.1,30.06,SW,225,2.5,4.0,69,0.00,,,0.00,WUHU21623XXSP,2013-01-23 20:19:00,
2013-01-23 15:24:00,18.7,10.1,30.06,SSE,157,3.4,4.0,69,0.00,,,0.00,WUHU21623XXSP,2013-01-23 20:24:00,
2013-01-23 15:29:00,18.7,9.8,30.06,SW,225,0.0,3.4,68,0.00,,,0.00,WUHU21623XXSP,2013-01-23 20:29:00,
2013-01-23 15:34:00,18.3,9.5,30.07,SSW,202,0.0,2.9,68,0.00,,,0.00,WUHU21623XXSP,2013-01-23 20:34:00,
2013-01-23 15:39:00,18.1,9.5,30.06,SSW,202,5.4,5.4,68,0.00,,,0.00,WUHU21623XXSP,2013-01-23 20:39:00,
2013-01-23 15:44:00,17.8,9.1,30.07,SSW,202,0.0,5.4,68,0.00,,,0.00,WUHU21623XXSP,2013-01-23 20:44:00,
2013-01-23 15:49:00,17.6,8.8,30.06,SSW,202,0.0,0.0,68,0.00,,,0.00,WUHU21623XXSP,2013-01-23 20:49:00,
2013-01-23 15:54:00,17.4,8.6,30.06,SSW,202,5.8,5.8,68,0.00,,,0.00,WUHU21623XXSP,2013-01-23 20:54:00,
2013-01-23 15:59:00,17.2,8.5,30.06,SSW,202,0.0,6.7,68,0.00,,,0.00,WUHU21623XXSP,2013-01-23 20:59:00,
2013-01-23 16:04:00,17.2,8.5,30.06,SW,225,0.0,6.7,68,0.00,,,0.00,WUHU21623XXSP,2013-01-23 21:04:00,
2013-01-23 16:09:00,17.2,8.8,30.06,SSW,202,0.0,4.5,69,0.00,,,0.00,WUHU21623XXSP,2013-01-23 21:09:00,
2013-01-23 16:14:00,17.2,8.5,30.06,South,180,0.0,0.0,68,0.00,,,0.00,WUHU21623XXSP,2013-01-23 21:14:00,
2013-01-23 16:19:00,16.9,8.1,30.06,South,180,0.0,0.0,68,0.00,,,0.00,WUHU21623XXSP,2013-01-23 21:19:00,
2013-01-23 16:24:00,16.9,8.4,30.06,SSW,202,0.0,0.0,69,0.00,,,0.00,WUHU21623XXSP,2013-01-23 21:24:00,
2013-01-23 16:29:00,16.9,8.4,30.06,SW,225,0.0,0.0,69,0.00,,,0.00,WUHU21623XXSP,2013-01-23 21:29:00,
2013-01-23 16:34:00,16.7,8.3,30.05,SW,225,0.7,0.7,69,0.00,,,0.00,WUHU21623XXSP,2013-01-23 21:34:00,
2013-01-23 16:39:00,16.7,8.3,30.06,SW,225,0.0,0.7,69,0.00,,,0.00,WUHU21623XXSP,2013-01-23 21:39:00,
2013-01-23 16:44:00,16.7,7.9,30.06,SSW,202,0.0,2.0,68,0.00,,,0.00,WUHU21623XXSP,2013-01-23 21:44:00,
2013-01-23 16:49:00,16.7,7.9,30.05,South,180,0.0,2.0,68,0.00,,,0.00,WUHU21623XXSP,2013-01-23 21:49:00,
2013-01-23 16:54:00,16.5,7.7,30.05,SSW,202,0.0,1.1,68,0.00,,,0.00,WUHU21623XXSP,2013-01-23 21:54:00,
2013-01-23 16:59:00,16.5,7.7,30.05,SW,225,0.0,2.5,68,0.00,,,0.00,WUHU21623XXSP,2013-01-23 21:59:00,
2013-01-23 17:04:00,16.3,7.6,30.05,SW,225,0.0,2.5,68,0.00,,,0.00,WUHU21623XXSP,2013-01-23 22:04:00,
2013-01-23 17:09:00,16.2,7.4,30.05,SW,225,4.9,4.9,68,0.00,,,0.00,WUHU21623XXSP,2013-01-23 22:09:00,
2013-01-23 17:14:00,16.2,7.4,30.05,SSW,202,0.0,4.9,68,0.00,,,0.00,WUHU21623XXSP,2013-01-23 22:14:00,
2013-01-23 17:19:00,16.0,7.2,30.05,South,180,2.2,2.2,68,0.00,,,0.00,WUHU21623XXSP,2013-01-23 22:19:00,
2013-01-23 17:24:00,15.8,7.0,30.05,SSW,202,0.0,2.2,68,0.00,,,0.00,WUHU21623XXSP,2013-01-23 22:24:00,
2013-01-23 17:29:00,15.6,6.9,30.05,SSW,202,2.0,2.0,68,0.00,,,0.00,WUHU21623XXSP,2013-01-23 22:29:00,
2013-01-23 17:34:00,15.6,6.9,30.05,SSW,202,0.0,2.0,68,0.00,,,0.00,WUHU21623XXSP,2013-01-23 22:34:00,
2013-01-23 17:39:00,15.6,6.9,30.05,SW,225,0.0,0.0,68,0.00,,,0.00,WUHU21623XXSP,2013-01-23 22:39:00,
2013-01-23 17:44:00,15.4,7.0,30.04,SSW,202,0.0,0.0,69,0.00,,,0.00,WUHU21623XXSP,2013-01-23 22:44:00,
2013-01-23 17:49:00,15.4,7.0,30.05,SW,225,0.0,0.0,69,0.00,,,0.00,WUHU21623XXSP,2013-01-23 22:49:00,
2013-01-23 17:54:00,15.3,6.9,30.05,SW,225,0.0,0.0,69,0.00,,,0.00,WUHU21623XXSP,2013-01-23 22:54:00,
2013-01-23 17:59:00,15.1,6.7,30.05,SW,225,0.0,0.0,70,0.00,,,0.00,WUHU21623XXSP,2013-01-23 22:59:00,
2013-01-23 18:04:00,15.1,7.1,30.05,SW,225,0.0,0.0,70,0.00,,,0.00,WUHU21623XXSP,2013-01-23 23:04:00,
2013-01-23 18:09:00,14.9,6.9,30.06,SW,225,0.0,0.0,70,0.00,,,0.00,WUHU21623XXSP,2013-01-23 23:09:00,
2013-01-23 18:14:00,14.9,7.2,30.05,SSW,202,0.0,0.0,71,0.00,,,0.00,WUHU21623XXSP,2013-01-23 23:14:00,
2013-01-23 18:19:00,14.7,7.0,30.05,SW,225,0.0,0.0,71,0.00,,,0.00,WUHU21623XXSP,2013-01-23 23:19:00,
2013-01-23 18:24:00,14.7,7.0,30.05,South,180,0.0,0.0,72,0.00,,,0.00,WUHU21623XXSP,2013-01-23 23:24:00,
2013-01-23 18:29:00,14.7,7.3,30.05,SSW,202,0.0,1.6,72,0.00,,,0.00,WUHU21623XXSP,2013-01-23 23:29:00,
2013-01-23 18:34:00,14.5,7.1,30.06,SW,225,0.0,1.6,72,0.00,,,0.00,WUHU21623XXSP,2013-01-23 23:34:00,
2013-01-23 18:39:00,14.5,7.1,30.05,SSE,157,1.6,1.6,72,0.00,,,0.00,WUHU21623XXSP,2013-01-23 23:39:00,
2013-01-23 18:44:00,14.5,7.1,30.06,SSE,157,1.6,1.6,72,0.00,,,0.00,WUHU21623XXSP,2013-01-23 23:44:00,
2013-01-23 18:49:00,14.4,7.3,30.05,SW,225,0.0,1.6,73,0.00,,,0.00,WUHU21623XXSP,2013-01-23 23:49:00,
2013-01-23 18:54:00,14.4,7.3,30.05,SW,225,0.0,1.6,73,0.00,,,0.00,WUHU21623XXSP,2013-01-23 23:54:00,
2013-01-23 18:59:00,14.2,7.1,30.05,SW,225,0.0,1.3,73,0.00,,,0.00,WUHU21623XXSP,2013-01-23 23:59:00,
2013-01-23 19:04:00,14.2,7.1,30.05,SSW,202,0.0,0.0,73,0.00,,,0.00,WUHU21623XXSP,2013-01-24 00:04:00,
2013-01-23 19:09:00,14.2,7.4,30.05,SW,225,0.0,0.0,74,0.00,,,0.00,WUHU21623XXSP,2013-01-24 00:09:00,
2013-01-23 19:14:00,14.2,7.4,30.05,SSW,202,0.0,0.0,74,0.00,,,0.00,WUHU21623XXSP,2013-01-24 00:14:00,
2013-01-23 19:19:00,14.2,7.4,30.05,SW,225,0.0,0.0,74,0.00,,,0.00,WUHU21623XXSP,2013-01-24 00:19:00,
2013-01-23 19:24:00,14.2,7.4,30.05,SW,225,0.0,0.0,74,0.00,,,0.00,WUHU21623XXSP,2013-01-24 00:24:00,
2013-01-23 19:29:00,14.0,7.2,30.05,SSW,202,0.0,0.0,74,0.00,,,0.00,WUHU21623XXSP,2013-01-24 00:29:00,
2013-01-23 19:34:00,13.8,7.1,30.05,SSW,202,2.5,2.5,74,0.00,,,0.00,WUHU21623XXSP,2013-01-24 00:34:00,
2013-01-23 19:39:00,13.8,7.3,30.04,SSE,157,0.0,2.5,75,0.00,,,0.00,WUHU21623XXSP,2013-01-24 00:39:00,
2013-01-23 19:44:00,13.8,7.3,30.05,SSE,157,0.0,0.0,75,0.00,,,0.00,WUHU21623XXSP,2013-01-24 00:44:00,
2013-01-23 19:49:00,13.8,7.3,30.05,South,180,0.0,0.0,75,0.00,,,0.00,WUHU21623XXSP,2013-01-24 00:49:00,
2013-01-23 19:54:00,13.8,7.3,30.04,South,180,0.0,0.0,75,0.00,,,0.00,WUHU21623XXSP,2013-01-24 00:54:00,
2013-01-23 19:59:00,13.8,7.6,30.04,South,180,0.0,0.0,76,0.00,,,0.00,WUHU21623XXSP,2013-01-24 00:59:00,
2013-01-23 20:04:00,13.8,7.6,30.04,South,180,0.0,0.0,76,0.00,,,0.00,WUHU21623XXSP,2013-01-24 01:04:00,
2013-01-23 20:09:00,13.8,7.6,30.04,SSW,202,0.0,0.0,76,0.00,,,0.00,WUHU21623XXSP,2013-01-24 01:09:00,
2013-01-23 20:14:00,13.8,7.6,30.05,SW,225,0.0,0.0,76,0.00,,,0.00,WUHU21623XXSP,2013-01-24 01:14:00,
2013-01-23 20:19:00,13.8,7.6,30.04,SW,225,0.0,0.0,76,0.00,,,0.00,WUHU21623XXSP,2013-01-24 01:19:00,
2013-01-23 20:24:00,13.8,7.6,30.04,SSW,202,0.0,0.0,76,0.00,,,0.00,WUHU21623XXSP,2013-01-24 01:24:00,
2013-01-23 20:29:00,13.8,7.6,30.04,SW,225,0.0,2.0,76,0.00,,,0.00,WUHU21623XXSP,2013-01-24 01:29:00,
2013-01-23 20:34:00,13.6,7.4,30.04,South,180,0.0,2.0,76,0.00,,,0.00,WUHU21623XXSP,2013-01-24 01:34:00,
2013-01-23 20:39:00,13.6,7.4,30.04,SSW,202,0.0,0.0,76,0.00,,,0.00,WUHU21623XXSP,2013-01-24 01:39:00,
2013-01-23 20:44:00,13.6,7.4,30.05,SW,225,0.0,0.0,76,0.00,,,0.00,WUHU21623XXSP,2013-01-24 01:44:00,
2013-01-23 20:49:00,13.6,7.4,30.05,SSW,202,0.0,0.0,76,0.00,,,0.00,WUHU21623XXSP,2013-01-24 01:49:00,
2013-01-23 20:54:00,13.3,7.7,30.05,SSW,202,0.0,0.0,77,0.00,,,0.00,WUHU21623XXSP,2013-01-24 01:54:00,
2013-01-23 20:59:00,13.3,7.4,30.05,SSW,202,0.0,0.0,77,0.00,,,0.00,WUHU21623XXSP,2013-01-24 01:59:00,
2013-01-23 21:04:00,13.3,7.4,30.05,SSW,202,0.0,0.0,77,0.00,,,0.00,WUHU21623XXSP,2013-01-24 02:04:00,
2013-01-23 21:09:00,13.3,7.4,30.05,SSW,202,0.0,0.0,77,0.00,,,0.00,WUHU21623XXSP,2013-01-24 02:09:00,
2013-01-23 21:14:00,13.3,7.4,30.05,SW,225,0.0,0.0,77,0.00,,,0.00,WUHU21623XXSP,2013-01-24 02:14:00,
2013-01-23 21:19:00,13.1,7.2,30.05,SW,225,0.0,0.0,77,0.00,,,0.00,WUHU21623XXSP,2013-01-24 02:19:00,
2013-01-23 21:24:00,13.1,7.2,30.05,SW,225,0.0,0.0,77,0.00,,,0.00,WUHU21623XXSP,2013-01-24 02:24:00,
2013-01-23 21:29:00,12.9,7.0,30.05,SW,225,0.0,0.0,77,0.00,,,0.00,WUHU21623XXSP,2013-01-24 02:29:00,
2013-01-23 21:34:00,12.9,7.0,30.06,SW,225,0.0,0.0,77,0.00,,,0.00,WUHU21623XXSP,2013-01-24 02:34:00,
2013-01-23 21:39:00,12.7,7.0,30.06,SW,225,0.0,0.0,77,0.00,,,0.00,WUHU21623XXSP,2013-01-24 02:39:00,
2013-01-23 21:44:00,12.7,6.8,30.06,SW,225,0.0,0.0,77,0.00,,,0.00,WUHU21623XXSP,2013-01-24 02:44:00,
2013-01-23 21:49:00,12.7,6.8,30.06,SW,225,0.0,0.0,77,0.00,,,0.00,WUHU21623XXSP,2013-01-24 02:49:00,
2013-01-23 21:54:00,12.7,6.8,30.06,SW,225,0.0,0.0,77,0.00,,,0.00,WUHU21623XXSP,2013-01-24 02:54:00,
2013-01-23 21:59:00,12.7,6.8,30.06,SW,225,0.0,0.0,77,0.00,,,0.00,WUHU21623XXSP,2013-01-24 02:59:00,
2013-01-23 22:04:00,12.7,6.8,30.06,SW,225,0.0,0.0,77,0.00,,,0.00,WUHU21623XXSP,2013-01-24 03:04:00,
2013-01-23 22:09:00,12.6,6.7,30.06,SW,225,0.0,0.0,77,0.00,,,0.00,WUHU21623XXSP,2013-01-24 03:09:00,
2013-01-23 22:14:00,12.7,6.8,30.07,SW,225,0.0,0.0,77,0.00,,,0.00,WUHU21623XXSP,2013-01-24 03:14:00,
2013-01-23 22:19:00,12.7,6.8,30.06,SW,225,0.0,0.0,77,0.00,,,0.00,WUHU21623XXSP,2013-01-24 03:19:00,
2013-01-23 22:24:00,12.7,7.1,30.06,SW,225,0.0,0.0,78,0.00,,,0.00,WUHU21623XXSP,2013-01-24 03:24:00,
2013-01-23 22:29:00,12.7,7.1,30.07,SW,225,0.0,0.0,78,0.00,,,0.00,WUHU21623XXSP,2013-01-24 03:29:00,
2013-01-23 22:34:00,12.7,7.1,30.07,SW,225,0.0,0.0,78,0.00,,,0.00,WUHU21623XXSP,2013-01-24 03:34:00,
2013-01-23 22:39:00,12.7,7.1,30.07,SW,225,0.0,0.0,78,0.00,,,0.00,WUHU21623XXSP,2013-01-24 03:39:00,
2013-01-23 22:44:00,12.7,7.1,30.07,SW,225,0.0,0.0,78,0.00,,,0.00,WUHU21623XXSP,2013-01-24 03:44:00,
2013-01-23 22:49:00,12.7,7.1,30.07,SW,225,0.0,0.0,78,0.00,,,0.00,WUHU21623XXSP,2013-01-24 03:49:00,
2013-01-23 22:54:00,12.7,7.1,30.07,SSW,202,0.0,0.0,78,0.00,,,0.00,WUHU21623XXSP,2013-01-24 03:54:00,
2013-01-23 22:59:00,12.7,7.1,30.07,SSW,202,0.0,0.0,78,0.00,,,0.00,WUHU21623XXSP,2013-01-24 03:59:00,
2013-01-23 23:04:00,12.7,7.1,30.07,North,0,0.0,0.0,78,0.00,,,0.00,WUHU21623XXSP,2013-01-24 04:04:00,
2013-01-23 23:09:00,12.7,7.1,30.08,North,0,0.0,0.0,78,0.00,,,0.00,WUHU21623XXSP,2013-01-24 04:09:00,
2013-01-23 23:14:00,12.7,7.1,30.08,North,0,0.0,0.0,78,0.00,,,0.00,WUHU21623XXSP,2013-01-24 04:14:00,
2013-01-23 23:19:00,12.7,7.1,30.08,SSW,202,0.0,0.0,78,0.00,,,0.00,WUHU21623XXSP,2013-01-24 04:19:00,
2013-01-23 23:24:00,12.7,7.1,30.08,SSW,202,0.0,0.0,78,0.00,,,0.00,WUHU21623XXSP,2013-01-24 04:24:00,
2013-01-23 23:29:00,12.7,7.1,30.09,SSW,202,0.0,0.0,78,0.00,,,0.00,WUHU21623XXSP,2013-01-24 04:29:00,
2013-01-23 23:34:00,12.7,7.1,30.08,SSW,202,0.0,0.0,78,0.00,,,0.00,WUHU21623XXSP,2013-01-24 04:34:00,
2013-01-23 23:39:00,12.7,7.1,30.08,SSW,202,0.0,0.0,78,0.00,,,0.00,WUHU21623XXSP,2013-01-24 04:39:00,
2013-01-23 23:44:00,12.7,7.1,30.09,SSW,202,0.0,0.0,78,0.00,,,0.00,WUHU21623XXSP,2013-01-24 04:44:00,
2013-01-23 23:49:00,12.7,7.1,30.09,SSW,202,0.0,0.0,78,0.00,,,0.00,WUHU21623XXSP,2013-01-24 04:49:00,
2013-01-23 23:54:00,12.7,7.4,30.09,North,0,0.0,0.0,79,0.00,,,0.00,WUHU21623XXSP,2013-01-24 04:54:00,
2013-01-23 23:59:00,12.7,7.4,30.09,North,0,0.0,0.0,79,0.00,,,0.00,WUHU21623XXSP,2013-01-24 04:59:00,